Location: Melizzano
(41.1500°N, 14.5000°E)
Time: 18:36:32
(UTC+00:00)

NOSS 3-3 (C) - Pass Details

Date: 11 May 2021
Orbit: 806 x 1406 km, 63.4° (Epoch: 14 June)

Event Time Altitude Azimuth Distance (km) Brightness Sun altitude
Rises 19:29:47 0° 211° (SSW) 3,339 6.7 -13.6°
Reaches altitude 10° 19:32:07 10° 211° (SSW) 2,444 6.0 -13.9°
Maximum altitude 19:37:43 86° 125° (SE) 905 3.8 -14.7°
Drops below altitude 10° 19:44:07 10° 36° (NE) 2,764 6.5 -15.6°
Sets 19:46:53 0° 36° (NE) 3,810 7.2 -16.0°
